Flag for U.S.A. Weather past 2 weeks in Memphis, Tennessee, U.S.A.

Now
28 °F

Clear.


Feels Like: 22 °F
Forecast: 25 / 48 °F
Wind: 6 mph from Southwest

Location: Memphis International Airport

Current Time: Mar 6, 2015 at 10:25:28 PM

Latest Report: Mar 6, 2015 at 9:54 PM


Visibility: 10 mi

Pressure: 30.49 "Hg

Humidity: 72%

Dew point: 20 °F

Location of MemphisLocation

Historic Weather in Memphis — Graph

°F

Memphis temperature yesterday

Maximum temperature yesterday: 30 °F (at 12:54 PM)
Minimum temperature yesterday: 19 °F (at 11:54 PM)
Average temperature yesterday: 24 °F

Past Weeks' High & Low Weather Summary

 TemperatureHumidityPressure
High63 °F (Mar 3, 10:54 PM)100% (Feb 26, 7:00 AM)30.64 "Hg (Feb 26, 7:00 AM)
Low16 °F (Mar 6, 5:54 AM)29% (Feb 28, 2:54 PM)29.78 "Hg (Feb 21, 8:54 AM)
Average34 °F73%30.26 "Hg
* Reported Feb 19 8:54 PM — Mar 6 8:54 PM, Memphis, Weather by CustomWeather, © 2015

Note: Actual official high and low records may vary slightly from our data, if they occured in-between our weather recording intervals... More about our weather records

Advertising

Memphis weather history for previous 24 hours

 ConditionsComfort  
Time TempWeatherWind HumidityBarometerVisibility
8:54 PM
Fri, Mar 6
30 °FClear.No wind66%30.50 "Hg10 mi
7:54 PM31 °FClear.No wind59%30.51 "Hg10 mi
6:54 PM33 °FClear.3 mph49%30.50 "Hg10 mi
5:54 PM35 °FClear.5 mph52%30.50 "Hg10 mi
4:54 PM39 °FSunny.5 mph43%30.50 "Hg10 mi
3:54 PM40 °FSunny.No wind32%30.51 "Hg10 mi
2:54 PM40 °FSunny.6 mph33%30.53 "Hg10 mi
1:54 PM38 °FSunny.No wind34%30.54 "Hg10 mi
12:54 PM36 °FSunny.No wind38%30.57 "Hg10 mi
11:54 AM32 °FSunny.No wind41%30.60 "Hg10 mi
10:54 AM30 °FSunny.No wind43%30.62 "Hg10 mi
9:54 AM27 °FSunny.No wind51%30.63 "Hg10 mi
8:54 AM23 °FSunny.No wind57%30.64 "Hg10 mi
7:54 AM21 °FSunny.No wind62%30.63 "Hg10 mi
6:54 AM16 °FSunny.No wind74%30.61 "Hg10 mi
5:54 AM16 °FSunny.5 mph71%30.60 "Hg10 mi
4:54 AM17 °FClear.6 mph68%30.59 "Hg10 mi
3:54 AM18 °FClear.5 mph68%30.58 "Hg10 mi
2:54 AM19 °FClear.6 mph62%30.58 "Hg10 mi
1:54 AM20 °FClear.6 mph62%30.58 "Hg10 mi
12:54 AM19 °FClear.6 mph68%30.59 "Hg10 mi
11:54 PM
Thu, Mar 5
19 °FClear.5 mph71%30.59 "Hg10 mi
10:54 PM21 °FClear.3 mph65%30.60 "Hg10 mi
Weather by CustomWeather, © 2015

See weather overviewHow to use our weather pages